Home   Weather   Kenora   Past weeks
Flag for Canada

Past Weather in Kenora, Ontario, Canada — Yesterday and Last 2 Weeks

Now
72 °F

Scattered clouds.


Feels Like: 76 °F
Forecast: N/A
Wind: 17 mph from West

Location: Kenora

Current Time: Aug 18, 2019 at 6:51:43 pm

Latest Report: Aug 18, 2019 at 6:00 pm


Visibility: 20 mi

Pressure: 29.70 "Hg

Humidity: 27%

Dew Point: 36 °F

Location of KenoraLocation

Past Weather in Kenora — Graph

°F

Kenora Temperature Yesterday

Maximum temperature yesterday: 73 °F (at 4:00 pm)
Minimum temperature yesterday: 64 °F (at 1:00 am)
Average temperature yesterday: 68 °F

High & Low Weather Summary for the Past Weeks

 TemperatureHumidityPressure
High86 °F (Aug 4, 5:00 pm)100% (Aug 16, 3:00 am)30.11 "Hg (Aug 16, 3:00 am)
Low54 °F (Aug 9, 5:00 am)27% (Aug 4, 7:00 pm)29.65 "Hg (Aug 17, 6:00 am)
Average66 °F65%29.88 "Hg
* Reported Aug 3 5:00 pm — Aug 18 5:00 pm, Kenora. Weather by CustomWeather, © 2019

Note: Actual official high and low records may vary slightly from our data, if they occured in-between our weather recording intervals... More about our weather records

Advertising

Kenora Weather History for the Previous 24 Hours

Scroll right to see more
 ConditionsComfort  
Time TempWeatherWind HumidityBarometerVisibility
5:00 pm
Sun, Aug 18
72 °FScattered clouds.15 mph29%29.70 "Hg20 mi
4:00 pm70 °FScattered clouds.15 mph33%29.71 "Hg20 mi
3:00 pm70 °FScattered clouds.17 mph27%29.72 "Hg20 mi
2:00 pm68 °FPassing clouds.15 mph30%29.72 "Hg20 mi
1:00 pm66 °FPassing clouds.15 mph32%29.72 "Hg20 mi
12:00 pm66 °FScattered clouds.14 mph35%29.72 "Hg20 mi
11:00 am63 °FScattered clouds.12 mph45%29.72 "Hg20 mi
10:00 am61 °FPassing clouds.12 mph59%29.72 "Hg20 mi
9:00 am59 °FPassing clouds.6 mph68%29.70 "Hg20 mi
8:00 am55 °FScattered clouds.6 mph77%29.69 "Hg20 mi
7:00 am54 °FScattered clouds.7 mph82%29.69 "Hg20 mi
6:00 am55 °FBroken clouds.5 mph82%29.67 "Hg20 mi
5:00 am57 °FPassing clouds.7 mph77%29.67 "Hg20 mi
4:00 am59 °FMostly cloudy.5 mph77%29.67 "Hg20 mi
3:00 am59 °FOvercast.5 mph77%29.67 "Hg20 mi
2:00 am59 °FMostly cloudy.5 mph72%29.69 "Hg20 mi
1:00 am59 °FOvercast.7 mph72%29.70 "Hg20 mi
12:00 am61 °FMostly cloudy.6 mph68%29.69 "Hg20 mi
11:00 pm
Sat, Aug 17
64 °FOvercast.7 mph64%29.69 "Hg20 mi
10:00 pm66 °FMostly cloudy.7 mph73%29.68 "Hg20 mi
9:00 pm66 °FMostly cloudy.5 mph78%29.68 "Hg20 mi
8:00 pm68 °FPassing clouds.5 mph73%29.65 "Hg20 mi
7:00 pm70 °FPartly sunny.7 mph64%29.67 "Hg20 mi
6:00 pm72 °FCloudy.8 mph69%29.67 "Hg20 mi
Weather by CustomWeather, © 2019

See weather overview